Regional Weather Roundup
Issued by NWS

Home | Current Version | Previous Version | Graphics & Text | Print | Product List | Glossary On
Versions: 1 2 3 4 5 6 7 8 9 10 11 12 13 14 15 16 17 18 19 20 21 22 23 24 25 26 27 28 29 30 31 32 33 34 35 36 37 38 39 40 41 42 43 44 45 46 47 48 49 50
000
ASUS43 KFSD 250202
RWRSD

WEATHER ROUNDUP FOR SOUTH DAKOTA
NATIONAL WEATHER SERVICE SIOUX FALLS SD
900 PM CDT FRI OCT 24 2014

NOTE: "FAIR" INDICATES FEW OR NO CLOUDS BELOW 12,000 FEET WITH NO
SIGNIFICANT WEATHER AND/OR OBSTRUCTIONS TO VISIBILITY.


SDZ001>005-009-010-012>017-250300-
NORTHWEST AND NORTH CENTRAL SOUTH DAKOTA

CITY           SKY/WX    TMP DP  RH WIND       PRES   REMARKS
BUFFALO          N/A     53  29  39 W6        30.03R
FAITH            N/A     54  32  43 NW9       30.07R
MOBRIDGE       CLOUDY    61  36  39 NW6       30.01R
$$

SDZ012>016-024>037-041>051-057-063-072>074-250300-
SOUTHWEST AND SOUTH CENTRAL SOUTH DAKOTA

CITY           SKY/WX    TMP DP  RH WIND       PRES   REMARKS
RAPID CTY ARPT CLEAR     52  35  52 N10       30.09R
PIERRE         PTCLDY    58  40  51 N7        29.98R
CUSTER         CLEAR     50  36  58 NE5       30.16R
ELLSWORTH AFB  CLEAR     56  35  45 N9        30.10R
PHILIP         CLEAR     54  38  54 N10       30.03R
PINE RIDGE     CLEAR     50  37  61 NE7       30.06R
SPEARFISH      CLOUDY    48  37  66 S5        30.14R
WINNER         FAIR      57  33  40 SW3       30.01R
$$

SDZ004>011-016>023-039-040-250300-
NORTHEAST SOUTH DAKOTA

CITY           SKY/WX    TMP DP  RH WIND       PRES   REMARKS
ABERDEEN       CLOUDY    64  39  39 NW14      29.97R
WATERTOWN      CLEAR     59  39  47 NW7       29.95R
SISSETON         N/A     62  39  42 NW13      29.92R
$$

SDZ017-020-022-023-036>040-048>070-250300-
SOUTHEAST SOUTH DAKOTA

CITY           SKY/WX    TMP DP  RH WIND       PRES   REMARKS
SIOUX FALLS    PTCLDY    58  43  57 SW6       29.96R
HURON          PTCLDY    51  37  58 NW8       29.95S
CHAMBERLAIN    CLEAR     51  35  56 CALM      29.98S
MITCHELL       CLEAR     60  40  47 W7        29.97R
YANKTON        CLEAR     61  45  55 SW8       29.98R
$$

ABBREVIATIONS USED IN REMARKS
   TC - TEMPERATURE IN CELSIUS
  WCI - WIND CHILL INDEX
   HX - HEAT INDEX
  VSB - VISIBILITY




USA.gov is the U.S. government's official web portal to all federal, state and local government web resources and services.